Weather History for Sidney-Richland, MT

Change the Weather History Date:

Sunday, February 10, 2013

  Actual Average Record
Temperature  
Mean Temperature 24 °F -  
Max Temperature 30 °F 27 °F 55 °F (2005)
Min Temperature 19 °F 7 °F -30 °F (1955)
Degree Days  
Heating Degree Days 40    
Moisture  
Dew Point 20 °F    
Average Humidity 82    
Maximum Humidity 93    
Minimum Humidity 69    
Precipitation  
Precipitation 0.00 in - - ()
Sea Level Pressure  
Sea Level Pressure 29.96 in    
Wind  
Wind Speed 14 mph (NW)    
Max Wind Speed 26 mph    
Max Gust Speed 32 mph    
Visibility 10 miles    
Events      
Averages and records for this station are not official NWS values.
T = Trace of Precipitation, MM = Missing Value Source: NWS Daily Summary

Daily Weather History Graph

Daily Weather History Graph

Search for Another Location

Airport:

Trip Planner

Search our weather history database for the weather conditions in past years. The results will help you decide how hot, cold, wet, or windy it might be!

Date:

Astronomy

Feb. 10, 2013 Rise Set
Actual Time 7:10 AM MST 5:12 PM MST
Civil Twilight 6:38 AM MST 5:44 PM MST
Nautical Twilight 6:01 AM MST 6:21 PM MST
Astronomical Twilight 5:25 AM MST 6:56 PM MST
Moon 6:55 AM MST (2/10) 6:13 PM MST (2/10)
Length of Visible Light 11h 06m
Length of Day
10h 02m
New Moon, 0% of the Moon is Illuminated
Feb 10
New Moon
Feb 17
First Quarter
Feb 25
Full
Mar 4
Last Quarter
Mar 11
New

Hourly Weather History & Observations

Time (MST) Temp. Windchill Dew Point Humidity Pressure Visibility Wind Dir Wind Speed Gust Speed Precip Events Conditions
12:35 AM 28.4 °F 19.7 °F 26.6 °F 93% 29.85 in 10.0 mi WNW 9.2 mph - N/A   Overcast
12:55 AM 28.4 °F 19.1 °F 24.8 °F 86% 29.85 in 10.0 mi WNW 10.4 mph - N/A   Overcast
1:16 AM 28.4 °F 19.7 °F 24.8 °F 86% 29.85 in 10.0 mi NW 9.2 mph - N/A   Overcast
1:35 AM 28.4 °F 19.1 °F 26.6 °F 93% 29.86 in 10.0 mi WNW 10.4 mph - N/A   Overcast
2:15 AM 28.4 °F 19.1 °F 24.8 °F 86% 29.86 in 10.0 mi WNW 10.4 mph - N/A   Overcast
2:35 AM 28.4 °F 19.1 °F 24.8 °F 86% 29.85 in 10.0 mi WNW 10.4 mph - N/A   Overcast
2:55 AM 30.2 °F 20.8 °F 24.8 °F 80% 29.85 in 10.0 mi WNW 11.5 mph - N/A   Overcast
3:15 AM 30.2 °F 19.8 °F 24.8 °F 80% 29.85 in 10.0 mi WNW 13.8 mph - N/A   Overcast
3:35 AM 28.4 °F 18.0 °F 24.8 °F 86% 29.85 in 10.0 mi WNW 12.7 mph - N/A   Overcast
3:55 AM 28.4 °F 18.0 °F 26.6 °F 93% 29.85 in 5.0 mi WNW 12.7 mph - N/A   Overcast
4:15 AM 30.2 °F 20.8 °F 26.6 °F 86% 29.86 in 10.0 mi WNW 11.5 mph - N/A   Overcast
4:35 AM 28.4 °F 17.0 °F 26.6 °F 93% 29.85 in 10.0 mi NW 15.0 mph - N/A   Overcast
4:55 AM 30.2 °F 18.9 °F 26.6 °F 86% 29.86 in 10.0 mi NW 16.1 mph - N/A   Overcast
5:15 AM 30.2 °F 18.5 °F 24.8 °F 80% 29.86 in 10.0 mi NW 17.3 mph - N/A   Overcast
5:35 AM 28.4 °F 17.5 °F 24.8 °F 86% 29.87 in 10.0 mi NW 13.8 mph - N/A   Overcast
5:55 AM 28.4 °F 17.0 °F 24.8 °F 86% 29.86 in 10.0 mi NW 15.0 mph - N/A   Overcast
6:35 AM 28.4 °F 15.1 °F 24.8 °F 86% 29.87 in 10.0 mi NNW 20.7 mph 24.2 mph N/A   Overcast
6:55 AM 28.4 °F 17.5 °F 24.8 °F 86% 29.88 in 10.0 mi NNW 13.8 mph - N/A   Overcast
7:15 AM 28.4 °F 16.6 °F 23.0 °F 80% 29.89 in 10.0 mi NW 16.1 mph - N/A   Mostly Cloudy
7:35 AM 26.6 °F 13.8 °F 23.0 °F 86% 29.89 in 10.0 mi NNW 17.3 mph - N/A   Overcast
7:55 AM 28.4 °F 16.6 °F 23.0 °F 80% 29.90 in 10.0 mi NW 16.1 mph 20.7 mph N/A   Overcast
8:15 AM 28.4 °F 16.2 °F 21.2 °F 74% 29.91 in 10.0 mi NNW 17.3 mph 21.9 mph N/A   Overcast
8:35 AM 28.4 °F 17.5 °F 21.2 °F 74% 29.92 in 10.0 mi NNW 13.8 mph - N/A   Overcast
8:56 AM 28.4 °F 17.0 °F 21.2 °F 74% 29.92 in 10.0 mi NNW 15.0 mph - N/A   Overcast
9:15 AM 26.6 °F 13.8 °F 21.2 °F 80% 29.93 in 10.0 mi NNW 17.3 mph - N/A   Overcast
9:35 AM 26.6 °F 13.8 °F 21.2 °F 80% 29.93 in 10.0 mi NNW 17.3 mph 24.2 mph N/A   Overcast
9:55 AM 26.6 °F 14.3 °F 21.2 °F 80% 29.94 in 10.0 mi North 16.1 mph 23.0 mph N/A   Overcast
10:15 AM 26.6 °F 15.7 °F 21.2 °F 80% 29.94 in 10.0 mi NNW 12.7 mph 20.7 mph N/A   Overcast
10:35 AM 26.6 °F 13.4 °F 21.2 °F 80% 29.94 in 10.0 mi NNW 18.4 mph 23.0 mph N/A   Overcast
10:55 AM 26.6 °F 13.4 °F 21.2 °F 80% 29.95 in 10.0 mi NNW 18.4 mph 23.0 mph N/A   Overcast
11:15 AM 26.6 °F 12.7 °F 21.2 °F 80% 29.95 in 10.0 mi NNW 20.7 mph 26.5 mph N/A   Overcast
11:35 AM 26.6 °F 13.4 °F 19.4 °F 74% 29.95 in 10.0 mi NNW 18.4 mph 27.6 mph N/A   Overcast
11:55 AM 26.6 °F 11.7 °F 19.4 °F 74% 29.94 in 10.0 mi NW 24.2 mph 32.2 mph N/A   Overcast
12:15 PM 26.6 °F 11.1 °F 19.4 °F 74% 29.94 in 10.0 mi NW 26.5 mph 31.1 mph N/A   Overcast
12:35 PM 24.8 °F 10.3 °F 19.4 °F 80% 29.95 in 10.0 mi NNW 20.7 mph 29.9 mph N/A   Overcast
12:55 PM 24.8 °F 10.0 °F 15.8 °F 69% 29.95 in 10.0 mi NNW 21.9 mph 28.8 mph N/A   Overcast
1:15 PM 24.8 °F 10.0 °F 15.8 °F 69% 29.95 in 10.0 mi NW 21.9 mph 29.9 mph N/A   Overcast
1:35 PM 23.0 °F 7.6 °F 15.8 °F 74% 29.95 in 10.0 mi NW 21.9 mph - N/A   Overcast
1:55 PM 23.0 °F 8.3 °F 15.8 °F 74% 29.96 in 10.0 mi NNW 19.6 mph 24.2 mph N/A   Overcast
2:15 PM 23.0 °F 8.3 °F 15.8 °F 74% 29.96 in 10.0 mi NW 19.6 mph 27.6 mph N/A   Overcast
2:35 PM 21.2 °F 4.9 °F 15.8 °F 80% 29.97 in 10.0 mi NW 23.0 mph 26.5 mph N/A   Overcast
2:55 PM 21.2 °F 4.5 °F 15.8 °F 80% 29.97 in 10.0 mi NW 24.2 mph 28.8 mph N/A   Overcast
3:15 PM 21.2 °F 4.9 °F 14.0 °F 74% 29.97 in 10.0 mi NW 23.0 mph 26.5 mph N/A   Overcast
3:35 PM 21.2 °F 5.6 °F 14.0 °F 74% 29.99 in 10.0 mi NW 20.7 mph 26.5 mph N/A   Overcast
3:55 PM 21.2 °F 6.4 °F 14.0 °F 74% 29.99 in 10.0 mi NW 18.4 mph 27.6 mph N/A   Overcast
4:35 PM 21.2 °F 6.4 °F 15.8 °F 80% 30.01 in 10.0 mi NW 18.4 mph 23.0 mph N/A   Overcast
5:15 PM 19.4 °F 5.5 °F 14.0 °F 80% 30.03 in 10.0 mi NNW 15.0 mph - N/A   Overcast
5:55 PM 19.4 °F 6.0 °F 15.8 °F 86% 30.05 in 9.0 mi NW 13.8 mph 20.7 mph N/A   Overcast
6:15 PM 19.4 °F 4.5 °F 15.8 °F 86% 30.04 in 7.0 mi WNW 17.3 mph 21.9 mph N/A   Overcast
6:35 PM 19.4 °F 5.0 °F 15.8 °F 86% 30.03 in 8.0 mi WNW 16.1 mph - N/A   Overcast
6:55 PM 19.4 °F 5.5 °F 15.8 °F 86% 30.03 in 10.0 mi NW 15.0 mph - N/A   Overcast
7:15 PM 19.4 °F 4.5 °F 15.8 °F 86% 30.03 in 10.0 mi NW 17.3 mph - N/A   Overcast
7:35 PM 19.4 °F 6.6 °F 15.8 °F 86% 30.05 in 10.0 mi NW 12.7 mph 19.6 mph N/A   Overcast
7:55 PM 19.4 °F 6.6 °F 15.8 °F 86% 30.05 in 10.0 mi NW 12.7 mph - N/A   Overcast
8:15 PM 19.4 °F 6.0 °F 15.8 °F 86% 30.06 in 10.0 mi NW 13.8 mph 18.4 mph N/A   Overcast
8:35 PM 19.4 °F 6.6 °F 15.8 °F 86% 30.07 in 10.0 mi NW 12.7 mph - N/A   Overcast
8:55 PM 19.4 °F 7.9 °F 15.8 °F 86% 30.08 in 10.0 mi NW 10.4 mph 17.3 mph N/A   Overcast
9:15 PM 21.2 °F 7.8 °F 15.8 °F 80% 30.08 in 10.0 mi NW 15.0 mph 18.4 mph N/A   Overcast
9:35 PM 21.2 °F 8.3 °F 15.8 °F 80% 30.08 in 10.0 mi NW 13.8 mph - N/A   Overcast
9:55 PM 19.4 °F 6.0 °F 15.8 °F 86% 30.09 in 10.0 mi NW 13.8 mph - N/A   Overcast
10:15 PM 19.4 °F 6.6 °F 15.8 °F 86% 30.08 in 10.0 mi NW 12.7 mph - N/A   Overcast
10:35 PM 19.4 °F 7.9 °F 15.8 °F 86% 30.08 in 10.0 mi NW 10.4 mph - N/A   Overcast
10:55 PM 19.4 °F 6.6 °F 15.8 °F 86% 30.09 in 10.0 mi NW 12.7 mph - N/A   Overcast
11:15 PM 19.4 °F 6.6 °F 15.8 °F 86% 30.09 in 10.0 mi NW 12.7 mph - N/A   Overcast
11:35 PM 19.4 °F 5.5 °F 14.0 °F 80% 30.09 in 10.0 mi NW 15.0 mph - N/A   Overcast
11:55 PM 19.4 °F 6.6 °F 14.0 °F 80% 30.10 in 10.0 mi NW 12.7 mph - N/A   Overcast